FW6216 Weather Reports


Display with metric or nautical units.
time (UTC)temp
F
wind
direction
speed
MPH
gust
MPH
rain 1hr
in
rain 24hr
in
rain mn
in
humidity
%
barometer
mb
20260901091536 58 219 0.0 3.0 0.00 0.00 0.00 47 1011.2
20260901090107 59 165 0.0 0.0 0.00 0.00 0.00 47 1011.1
20260901084633 58 157 0.0 0.0 0.00 0.00 0.00 48 1011.2
20260901083141 57 165 0.0 0.0 0.00 0.00 0.00 49 1011.3
20260901081531 57 253 0.0 0.0 0.00 0.00 0.00 48 1011.4
20260901080030 58 259 0.0 0.0 0.00 0.00 0.00 47 1011.4
20260901074536 58 183 0.0 2.0 0.00 0.00 0.00 46 1011.4
20260901073031 59 225 0.0 2.0 0.00 0.00 0.00 46 1011.4
20260901071530 59 225 1.0 4.0 0.00 0.00 0.00 45 1011.4
20260901063030 59 147 2.0 4.0 0.00 0.00 0.00 44 1011.6
20260901061532 59 211 0.0 4.0 0.00 0.00 0.00 44 1011.7
20260901060035 60 155 2.0 5.0 0.00 0.00 0.00 44 1011.7
20260901054532 61 157 0.0 3.0 0.00 0.00 0.00 43 1011.9
20260901053036 61 187 1.0 6.0 0.00 0.00 0.00 42 1011.8
20260901050143 62 164 4.0 6.0 0.00 0.00 0.00 43 1011.8
20260901041606 66 181 2.0 4.0 0.00 0.00 0.00 39 1011.7
20260901040035 66 212 0.0 2.0 0.00 0.00 0.00 38 1011.6
20260901034529 67 161 1.0 3.0 0.00 0.00 0.00 38 1011.4
20260901030029 69 197 0.0 0.0 0.00 0.00 0.00 36 1011.1
20260901024533 70 142 0.0 0.0 0.00 0.00 0.00 34 1011.0
20260901023035 71 119 0.0 4.0 0.00 0.00 0.00 33 1010.8
20260901021531 73 62 1.0 5.0 0.00 0.00 0.00 32 1010.7
20260901020036 75 32 4.0 6.0 0.00 0.00 0.00 31 1010.7
20260901013031 79 28 4.0 9.0 0.00 0.00 0.00 30 1010.7
20260901010030 80 15 5.0 10.0 0.00 0.00 0.00 30 1010.8
20260901004640 81 15 4.0 9.0 0.00 0.00 0.00 30 1010.9
20260901003034 80 12 5.0 11.0 0.00 0.00 0.00 30 1010.9
20260901001534 80 8 4.0 10.0 0.00 0.00 0.00 30 1011.1
20260901000033 80 10 5.0 12.0 0.00 0.00 0.00 29 1011.1
20260831234531 81 20 6.0 12.0 0.00 0.00 0.00 29 1011.3
20260831233034 81 33 4.0 10.0 0.00 0.00 0.00 29 1011.5
20260831231536 81 16 5.0 11.0 0.00 0.00 0.00 29 1011.7
20260831230032 81 32 4.0 11.0 0.00 0.00 0.00 31 1012.0
20260831223146 80 10 5.0 11.0 0.00 0.00 0.00 32 1012.4
20260831221534 79 1 4.0 13.0 0.00 0.00 0.00 33 1012.5
20260831220030 79 359 4.0 15.0 0.00 0.00 0.00 33 1012.8
20260831213034 78 11 5.0 13.0 0.00 0.00 0.00 35 1013.3
20260831211538 78 17 5.0 13.0 0.00 0.00 0.00 35 1013.5
20260831210029 78 7 6.0 16.0 0.00 0.00 0.00 36 1013.6
20260831204609 78 17 6.0 15.0 0.00 0.00 0.00 36 1013.9
20260831203107 78 12 6.0 15.0 0.00 0.00 0.00 37 1014.2
20260831200035 76 22 6.0 15.0 0.00 0.00 0.00 38 1014.6
20260831194532 76 6 6.0 13.0 0.00 0.00 0.00 38 1014.7
20260831193035 75 24 6.0 14.0 0.00 0.00 0.00 40 1015.0
20260831190107 73 19 6.0 13.0 0.00 0.00 0.00 44 1015.6
20260831184536 72 13 4.0 10.0 0.00 0.00 0.00 45 1016.0
20260831183031 71 15 3.0 10.0 0.00 0.00 0.00 46 1016.2
20260831174536 70 20 3.0 8.0 0.00 0.00 0.00 47 1016.7
20260831173109 70 45 4.0 10.0 0.00 0.00 0.00 48 1016.8
20260831171532 69 57 3.0 7.0 0.00 0.00 0.00 50 1016.8
20260831164535 71 345 2.0 6.0 0.00 0.00 0.00 50 1017.0
20260831163034 71 14 0.0 5.0 0.00 0.00 0.00 51 1017.1
20260831161535 69 18 0.0 3.0 0.00 0.00 0.00 54 1017.2
20260831160142 66 357 0.0 0.0 0.00 0.00 0.00 58 1017.3
20260831154532 63 325 0.0 0.0 0.00 0.00 0.00 64 1017.3
20260831153032 60 171 0.0 0.0 0.00 0.00 0.00 68 1017.4
20260831150030 55 180 0.0 0.0 0.00 0.00 0.00 75 1017.4
20260831144530 52 180 0.0 0.0 0.00 0.00 0.00 78 1017.2
20260831143106 50 240 0.0 0.0 0.00 0.00 0.00 78 1017.1
20260831141650 49 239 0.0 0.0 0.00 0.00 0.00 77 1017.1
20260831134532 48 202 0.0 0.0 0.00 0.00 0.00 78 1017.1
20260831133032 48 202 0.0 0.0 0.00 0.00 0.00 78 1017.1
20260831131531 48 202 0.0 0.0 0.00 0.00 0.00 77 1017.1
20260831130035 48 163 0.0 0.0 0.00 0.00 0.00 76 1017.1
20260831124530 49 157 0.0 0.0 0.00 0.00 0.00 74 1017.1
20260831123028 50 157 1.0 4.0 0.00 0.00 0.00 74 1017.1
20260831121535 50 239 0.0 4.0 0.00 0.00 0.00 75 1017.1
20260831120034 49 247 0.0 0.0 0.00 0.00 0.00 75 1017.1
20260831114535 49 247 0.0 0.0 0.00 0.00 0.00 75 1017.2
20260831113150 48 247 0.0 2.0 0.00 0.00 0.00 74 1017.2
20260831111535 49 247 0.0 2.0 0.00 0.00 0.00 74 1017.1
20260831110107 49 247 0.0 0.0 0.00 0.00 0.00 73 1017.1
20260831103140 50 247 0.0 3.0 0.00 0.00 0.00 71 1017.1
20260831100034 50 270 0.0 0.0 0.00 0.00 0.00 71 1017.4
20260831094533 50 255 0.0 2.0 0.00 0.00 0.00 70 1017.5